K9BM Weather Reports


time (UTC)temp
F
wind
direction
speed
knots
gust
knots
rain 1hr
in
rain 24hr
in
rain mn
in
humidity
%
barometer
mb
20260505114505 30 37 2.6 4.3 0.00 0.00 0.00 74 1015.4
20260505114005 31 36 2.6 4.3 0.00 0.00 0.00 72 1015.4
20260505113505 31 36 2.6 4.3 0.00 0.00 0.00 70 1015.4
20260505113005 32 38 2.6 4.3 0.00 0.00 0.00 70 1015.2
20260505112504 32 54 2.6 5.2 0.00 0.00 0.00 70 1015.2
20260505112004 32 55 2.6 5.2 0.00 0.00 0.00 70 1015.2
20260505111505 32 57 4.3 5.2 0.00 0.00 0.00 70 1015.1
20260505111005 32 61 2.6 4.3 0.00 0.00 0.00 70 1015.1
20260505102005 32 82 2.6 6.1 0.00 0.00 0.00 71 1015.3
20260505101505 31 90 3.5 7.0 0.00 0.00 0.00 71 1015.3
20260505101005 31 103 5.2 7.0 0.00 0.00 0.00 71 1015.2
20260505100004 32 100 3.5 6.1 0.00 0.00 0.00 69 1015.2
20260505095504 32 107 2.6 6.1 0.00 0.00 0.00 68 1015.2
20260505095005 32 105 5.2 6.1 0.00 0.00 0.00 68 1015.1
20260505094504 33 93 3.5 5.2 0.00 0.00 0.00 67 1015.1
20260505093504 34 93 4.3 5.2 0.00 0.00 0.00 64 1014.9
20260505093005 34 83 2.6 5.2 0.00 0.00 0.00 64 1014.9
20260505092504 34 76 2.6 5.2 0.00 0.00 0.00 63 1014.8
20260505092004 34 71 2.6 5.2 0.00 0.00 0.00 63 1014.8
20260505091005 34 80 0.9 2.6 0.00 0.00 0.00 62 1014.8
20260505090005 34 81 0.9 1.7 0.00 0.00 0.00 62 1014.8
20260505085505 34 81 0.0 1.7 0.00 0.00 0.00 62 1014.7
20260505085005 34 81 0.9 2.6 0.00 0.00 0.00 62 1014.7
20260505084004 35 81 1.7 6.1 0.00 0.00 0.00 60 1014.7
20260505083504 35 80 2.6 6.1 0.00 0.00 0.00 60 1014.6
20260505083005 36 79 4.3 7.0 0.00 0.00 0.00 59 1014.6
20260505082505 36 61 5.2 10.4 0.00 0.00 0.00 58 1014.4
20260505082005 36 52 5.2 10.4 0.00 0.00 0.00 58 1014.3
20260505081505 37 40 5.2 10.4 0.00 0.00 0.00 57 1014.3
20260505081004 38 39 6.1 10.4 0.00 0.00 0.00 55 1014.5
20260505075505 39 33 4.3 8.7 0.00 0.00 0.00 53 1014.3
20260505075005 40 26 4.3 10.4 0.00 0.00 0.00 53 1014.3
20260505074504 40 16 6.1 11.3 0.00 0.00 0.00 52 1014.3
20260505074005 41 24 7.8 11.3 0.00 0.00 0.00 50 1014.2
20260505073504 41 54 2.6 4.3 0.00 0.00 0.00 51 1014.1
20260505073005 41 75 1.7 4.3 0.00 0.00 0.00 49 1013.9
20260505072505 41 81 2.6 4.3 0.00 0.00 0.00 49 1013.8
20260505072004 41 83 2.6 2.6 0.00 0.00 0.00 50 1013.8
20260505071504 41 84 1.7 2.6 0.00 0.00 0.00 50 1013.8
20260505071005 42 84 1.7 4.3 0.00 0.00 0.00 51 1013.9
20260505070005 42 81 2.6 5.2 0.00 0.00 0.00 49 1013.8
20260505065505 42 89 1.7 6.1 0.00 0.00 0.00 49 1013.7
20260505064504 42 89 2.6 5.2 0.00 0.00 0.00 50 1013.7
20260505063504 43 53 0.9 7.0 0.00 0.00 0.00 49 1013.6
20260505062504 43 71 2.6 5.2 0.00 0.00 0.00 49 1013.7
20260505062005 43 79 1.7 2.6 0.00 0.00 0.00 50 1013.7
20260505061505 43 79 1.7 2.6 0.00 0.00 0.00 50 1013.7
20260505061005 43 79 1.7 5.2 0.00 0.00 0.00 50 1013.7
20260505060005 43 67 2.6 6.1 0.00 0.00 0.00 50 1013.6
20260505055504 43 52 4.3 6.1 0.00 0.00 0.00 49 1013.6
20260505055004 43 98 2.6 5.2 0.00 0.00 0.00 51 1013.6
20260505054504 43 83 2.6 10.4 0.00 0.00 0.00 51 1013.5
20260505054004 43 83 3.5 10.4 0.00 0.00 0.00 50 1013.4
20260505053505 43 88 4.3 7.0 0.00 0.00 0.00 52 1013.3
20260505052505 43 42 4.3 8.7 0.00 0.00 0.00 50 1013.3
20260505052005 43 82 3.5 10.4 0.00 0.00 0.00 51 1013.2
20260505051504 44 56 3.5 10.4 0.00 0.00 0.00 50 1013.3
20260505041504 44 54 7.8 15.6 0.00 0.00 0.00 50 1012.9
20260505041005 45 67 7.8 14.8 0.00 0.00 0.00 49 1012.9
20260505040005 45 71 9.6 13.9 0.00 0.00 0.00 50 1012.7
20260505035504 45 69 7.8 13.9 0.00 0.00 0.00 51 1012.6
20260505035004 45 58 7.8 10.4 0.00 0.00 0.00 53 1012.5
20260505034504 45 74 7.8 10.4 0.00 0.00 0.00 53 1012.4
20260505034004 46 78 7.0 10.4 0.00 0.00 0.00 54 1012.3
20260505033505 46 93 7.0 10.4 0.00 0.00 0.00 54 1012.1
20260505033004 46 83 7.0 10.4 0.00 0.00 0.00 54 1012.1
20260505032504 46 80 6.1 10.4 0.00 0.00 0.00 54 1012.0
20260505032004 46 72 5.2 10.4 0.00 0.00 0.00 53 1011.9
20260505031504 46 82 7.0 10.4 0.00 0.00 0.00 53 1011.9
20260505031004 46 69 5.2 10.4 0.00 0.00 0.00 53 1011.8
20260505030004 47 59 4.3 8.7 0.00 0.00 0.00 53 1011.7
20260505025504 47 48 6.1 8.7 0.00 0.00 0.00 52 1011.7
20260505025004 47 53 4.3 7.8 0.00 0.00 0.00 53 1011.6
20260505024504 47 55 4.3 8.7 0.00 0.00 0.00 52 1011.5
20260505023504 47 45 5.2 8.7 0.00 0.00 0.00 51 1011.3
20260505023005 47 47 3.5 5.2 0.00 0.00 0.00 51 1011.3
20260505022504 48 52 2.6 7.8 0.00 0.00 0.00 51 1011.3
20260505022005 48 38 3.5 8.7 0.00 0.00 0.00 50 1011.2
20260505021504 48 32 5.2 10.4 0.00 0.00 0.00 49 1011.2
20260505020004 49 25 5.2 10.4 0.00 0.00 0.00 47 1011.1
20260505015504 49 45 4.3 7.0 0.00 0.00 0.00 45 1011.1
20260505015004 49 63 1.7 6.1 0.00 0.00 0.00 44 1011.0
20260505014504 49 57 3.5 6.1 0.00 0.00 0.00 43 1011.0
20260505014004 49 64 3.5 6.1 0.00 0.00 0.00 43 1010.9
20260505013004 50 101 0.9 2.6 0.00 0.00 0.00 43 1010.8
20260505012504 50 102 1.7 2.6 0.00 0.00 0.00 42 1010.7
20260505012004 50 102 0.0 2.6 0.00 0.00 0.00 43 1010.7
20260505011504 51 102 0.9 2.6 0.00 0.00 0.00 43 1010.7
20260505011004 51 102 1.7 2.6 0.00 0.00 0.00 42 1010.7
20260505010004 51 102 2.6 2.6 0.00 0.00 0.00 42 1010.6
20260505005504 51 99 1.7 2.6 0.00 0.00 0.00 41 1010.6
20260505005004 51 99 0.9 2.6 0.00 0.00 0.00 42 1010.6
20260505004504 51 99 1.7 2.6 0.00 0.00 0.00 42 1010.6
20260505004005 51 99 1.7 2.6 0.00 0.00 0.00 42 1010.6
20260505003005 51 99 3.5 5.2 0.00 0.00 0.00 41 1010.5
20260505002504 51 86 2.6 4.3 0.00 0.00 0.00 41 1010.5
20260505002005 51 81 1.7 4.3 0.00 0.00 0.00 41 1010.4
20260505001004 51 81 2.6 4.3 0.00 0.00 0.00 41 1010.6
20260505000004 51 51 0.9 4.3 0.00 0.00 0.00 40 1010.4
20260504235504 51 51 0.9 4.3 0.00 0.00 0.00 39 1010.4
20260504235004 52 53 1.7 5.2 0.00 0.00 0.00 39 1010.4
20260504234504 52 37 1.7 5.2 0.00 0.00 0.00 39 1010.3
20260504234004 52 57 1.7 6.1 0.00 0.00 0.00 39 1010.2
20260504233505 52 79 2.6 6.1 0.00 0.00 0.00 40 1010.1
20260504232005 52 102 2.6 8.7 0.00 0.00 0.00 39 1010.0
20260504231505 52 100 4.3 8.7 0.00 0.00 0.00 40 1010.0
20260504231005 51 111 4.3 7.8 0.00 0.00 0.00 40 1010.0
20260504230005 50 98 6.1 7.8 0.00 0.00 0.00 42 1010.0
20260504225505 49 85 2.6 8.7 0.00 0.00 0.00 42 1010.0
20260504225005 49 82 5.2 8.7 0.00 0.00 0.00 42 1010.0
20260504224505 49 81 4.3 7.8 0.00 0.00 0.00 42 1009.9
20260504223505 49 32 4.3 7.8 0.00 0.00 0.00 44 1009.8
20260504222505 49 58 4.3 10.4 0.00 0.00 0.00 44 1009.8
20260504222005 49 18 4.3 7.0 0.00 0.00 0.00 45 1009.8
20260504221505 49 58 4.3 8.7 0.00 0.00 0.00 46 1009.9
20260504221005 49 61 5.2 10.4 0.00 0.00 0.00 45 1009.8
20260504220005 49 59 5.2 8.7 0.00 0.00 0.00 45 1009.9
20260504215505 50 55 4.3 8.7 0.00 0.00 0.00 45 1009.9
20260504215005 50 49 4.3 7.8 0.00 0.00 0.00 44 1009.9
20260504214505 50 27 5.2 10.4 0.00 0.00 0.00 45 1010.0
20260504214005 50 9 3.5 10.4 0.00 0.00 0.00 45 1010.0
20260504213505 50 28 7.0 10.4 0.00 0.00 0.00 44 1010.1
20260504212505 49 32 7.0 12.2 0.00 0.00 0.00 46 1010.1
20260504211505 49 22 7.0 10.4 0.00 0.00 0.00 46 1010.2
20260504211006 49 23 6.1 13.9 0.00 0.00 0.00 45 1010.3
20260504205505 49 26 7.8 11.3 0.00 0.00 0.00 46 1010.2
20260504205005 49 2 7.0 11.3 0.00 0.00 0.00 45 1010.2
20260504204505 49 20 6.1 11.3 0.00 0.00 0.00 45 1010.2
20260504204005 49 12 7.8 11.3 0.00 0.00 0.00 45 1010.1
20260504203505 49 0 6.1 13.0 0.00 0.00 0.00 44 1010.0
20260504203005 50 4 9.6 13.0 0.00 0.00 0.00 43 1009.9
20260504202005 49 16 7.8 13.0 0.00 0.00 0.00 45 1010.0
20260504201005 49 1 8.7 13.9 0.00 0.00 0.00 45 1009.9
20260504200005 49 359 7.8 11.3 0.00 0.00 0.00 50 1009.8
20260504195505 49 353 7.0 11.3 0.00 0.00 0.00 51 1009.8
20260504195005 49 355 7.0 10.4 0.00 0.00 0.00 51 1009.7
20260504194505 49 5 7.0 10.4 0.00 0.00 0.00 50 1009.7
20260504194005 50 18 6.1 10.4 0.00 0.00 0.00 49 1009.7
20260504193505 50 13 6.1 10.4 0.00 0.00 0.00 48 1009.7
20260504193005 50 15 5.2 10.4 0.00 0.00 0.00 47 1009.7
20260504192505 51 20 2.6 8.7 0.00 0.00 0.00 47 1009.6
20260504191505 51 23 3.5 10.4 0.00 0.00 0.00 46 1009.7
20260504191005 51 15 7.8 10.4 0.00 0.00 0.00 45 1009.6
20260504190005 51 60 1.7 8.7 0.00 0.00 0.00 43 1009.6
20260504185505 52 58 4.3 10.4 0.00 0.00 0.00 43 1009.5
20260504185005 52 23 2.6 10.4 0.00 0.00 0.00 42 1009.4
20260504184505 52 57 3.5 11.3 0.00 0.00 0.00 41 1009.4
20260504183505 51 16 6.1 12.2 0.00 0.00 0.00 43 1009.5
20260504183005 51 33 6.1 12.2 0.00 0.00 0.00 44 1009.4
20260504182504 51 337 5.2 12.2 0.00 0.00 0.00 43 1009.4
20260504182005 52 1 7.8 17.4 0.00 0.00 0.00 44 1009.5
20260504181505 51 26 7.8 17.4 0.00 0.00 0.00 46 1009.5
20260504181005 50 332 4.3 10.4 0.00 0.00 0.00 45 1009.5
20260504180005 50 2 4.3 11.3 0.00 0.00 0.00 45 1009.6
20260504175505 51 352 6.1 10.4 0.00 0.00 0.00 46 1009.7
20260504174505 51 15 5.2 10.4 0.00 0.00 0.00 44 1009.7
20260504174004 51 42 4.3 10.4 0.00 0.00 0.00 44 1009.8
20260504173505 51 25 4.3 12.2 0.00 0.00 0.00 44 1009.8
20260504172505 51 54 6.1 10.4 0.00 0.00 0.00 45 1009.7
20260504171505 51 46 5.2 12.2 0.00 0.00 0.00 46 1009.7
20260504171005 50 37 7.8 12.2 0.00 0.00 0.00 46 1009.8
20260504151005 47 85 7.8 13.0 0.00 0.00 0.00 54 1010.0
20260504141005 46 101 6.1 8.7 0.00 0.00 0.00 54 1010.1